TimePDT,TemperatureF,Dew PointF,Humidity,Sea Level PressureIn,VisibilityMPH,Wind Direction,Wind SpeedMPH,Gust SpeedMPH,PrecipitationIn,Events,Conditions,WindDirDegrees,DateUTC
12:53 AM,32.0,25.0,75,30.22,9.0,Calm,Calm,-,N/A,,Clear,0,2011-10-29 07:53:00
1:53 AM,30.0,24.1,79,30.23,9.0,Calm,Calm,-,N/A,,Clear,0,2011-10-29 08:53:00
2:53 AM,30.2,24.8,80,30.30,10.0,South,3.5,-,N/A,,Clear,190,2011-10-29 09:53:00
3:53 AM,28.0,23.0,81,30.24,10.0,Calm,Calm,-,N/A,,Clear,0,2011-10-29 10:53:00
4:53 AM,30.0,23.0,75,30.25,10.0,Variable,3.5,-,N/A,,Clear,0,2011-10-29 11:53:00
5:53 AM,28.0,21.9,78,30.28,10.0,Calm,Calm,-,N/A,,Clear,0,2011-10-29 12:53:00
6:53 AM,27.0,21.0,78,30.31,10.0,Calm,Calm,-,N/A,,Clear,0,2011-10-29 13:53:00
7:53 AM,26.1,21.0,81,30.33,10.0,SSW,3.5,-,N/A,,Clear,200,2011-10-29 14:53:00
8:53 AM,33.1,26.1,75,30.32,10.0,South,3.5,-,N/A,,Clear,190,2011-10-29 15:53:00
9:53 AM,44.1,28.9,55,30.30,10.0,Calm,Calm,-,N/A,,Clear,0,2011-10-29 16:53:00
10:53 AM,54.0,30.0,40,30.28,10.0,Calm,Calm,-,N/A,,Clear,0,2011-10-29 17:53:00
11:53 AM,60.1,26.1,27,30.25,10.0,Calm,Calm,-,N/A,,Clear,0,2011-10-29 18:53:00
12:53 PM,59.0,37.9,46,30.25,10.0,Calm,Calm,-,N/A,,Clear,0,2011-10-29 19:53:00
1:53 PM,60.1,32.0,35,30.23,10.0,Variable,4.6,-,N/A,,Clear,0,2011-10-29 20:53:00
2:53 PM,63.0,30.0,29,30.20,10.0,Calm,Calm,-,N/A,,Clear,0,2011-10-29 21:53:00
3:53 PM,62.6,28.4,27,30.27,10.0,Calm,Calm,-,N/A,,Clear,0,2011-10-29 22:53:00
4:53 PM,57.2,28.4,33,30.28,10.0,Calm,Calm,-,N/A,,Clear,0,2011-10-29 23:53:00
5:53 PM,50.0,32.0,50,30.25,10.0,Calm,Calm,-,N/A,,Clear,0,2011-10-30 00:53:00
6:53 PM,46.0,30.0,54,30.28,10.0,Calm,Calm,-,N/A,,Clear,0,2011-10-30 01:53:00
7:53 PM,42.1,28.9,60,30.31,10.0,South,4.6,-,N/A,,Clear,180,2011-10-30 02:53:00
8:53 PM,39.0,28.0,65,30.31,10.0,Calm,Calm,-,N/A,,Clear,0,2011-10-30 03:53:00
9:53 PM,37.0,26.1,65,30.28,10.0,Calm,Calm,-,N/A,,Clear,0,2011-10-30 04:53:00
10:53 PM,33.1,25.0,72,30.26,10.0,South,4.6,-,N/A,,Clear,170,2011-10-30 05:53:00
11:53 PM,30.9,25.0,79,30.25,9.0,Calm,Calm,-,N/A,,Clear,0,2011-10-30 06:53:00